星链-5766 (STARLINK-5766 )

导读

STARLINK-5766是美国太空探索技术公司星链计划中的卫星,于2023年3月24日发射入轨,属于星链低轨互联网星座的组成部分,旨在为全球提供高速宽带互联网服务,尤其覆盖偏远地区与网络基础设施薄弱区域,推进全球网络互联覆盖,目前已在近地轨道运行超三年。

基本信息
目录编号:
56025
目录名称:
STARLINK-5766
国际标识:
2023-042AR
轨道中心:
EARTH
卫星名称:
星链-5766
卫星全名:
星链-5766 (STARLINK-5766 )
卫星状态:
在轨 (已飞行1179 天)
发射日期:
2023-03-24 UTC
国别 :
美国 (US)
星等 :
--
轨道信息
数据来源 国际轨道数据 AOE轨道数据
星历时间 2026-06-13T18:22:33+0800
1天前
查看轨道信息
2026-06-13T06:00:00+0800
2天前
查看轨道信息
半长轴 6861.188km 6861.182km
偏心率 0.0002043 0.0000628
轨道倾角 43.008° 43.002°
近地点辐角 283.963° 274.962°
升交点赤经 224.901° 227.815°
平近点角 76.099° 126.048°
近地点 481.649km 482.614km
远地点 484.453km 483.476km
周期 94.267分钟 94.267分钟
每日圈数 15.275794 15.275817
详细信息
固有亮度:
5
最大亮度:
2.5
卫星平台:
Starlink v1.5
覆盖范围:
全球
运营商:
太空探索技术公司
运营商所在国:
美国
制造商(研发单位):
太空探索技术公司
制造商所在国:
美国
使用方式:
暂无
卫星简介
星链(Starlink)计划是由太空探索技术公司(SpaceX)提出的一个巨型低轨卫星互联网星座项目,计划在2019年至2024年间在太空搭建由约1.2万颗卫星组成的“星链”网络,其中1584颗将部署在地球上空550千米处的近地轨道,并从2020年开始工作。该卫星仍在工作。
2D轨道图
3D轨道图
轨道高度分析图
轨道倾角分析图
轨道综合分析图
查看轨道综合分析图